Wind_Speed
89 91 94 96 101 114 115 115 125 118 116 114 112 114 100 95 91 85 78 74 71 68 65 61 58 55 51 49 45 50 52 55 57 57 50 51 54 58 61 64 59 63 64 69
84 91 97 100 99 109 112 108 113 114 106 110 100 97 92 89 84 80 73 70 66 65 63 62 60 58 54 48 44 46 50 55 56 63 61 54 53 52 54 57 63 69 69 72
84 91 92 101 107 102 102 106 112 105 103 99 96 92 88 84 80 72 69 67 66 66 67 67 64 63 60 55 47 44 49 52 57 62 72 61 51 50 58 67 72 72 74 75
87 91 94 106 105 101 97 100 94 96 93 91 90 90 86 80 72 72 70 72 74 73 71 69 68 68 68 62 54 48 46 51 57 61 62 70 61 58 62 64 71 77 80 82
89 91 90 100 95 96 95 101 88 88 85 83 80 80 81 75 74 70 66 69 68 66 67 65 65 65 67 65 60 52 48 50 56 59 64 67 65 60 64 67 71 76 83 84
91 90 88 96 94 92 87 89 84 79 76 73 75 74 71 68 66 62 60 62 63 62 61 60 60 62 65 62 61 56 52 51 57 63 71 73 70 70 71 79 78 78 81 88
89 91 89 89 90 87 85 77 75 72 67 63 64 61 61 58 56 53 53 52 51 53 52 51 55 56 59 55 57 57 55 53 59 68 77 80 80 79 71 81 86 88 88 91
86 88 88 90 85 84 79 73 71 66 63 64 60 54 51 49 49 48 48 47 46 51 49 48 49 50 52 53 52 56 56 55 58 68 80 83 88 86 81 81 86 92 94 93
82 87 89 88 85 84 82 77 71 58 60 60 59 53 47 44 43 42 43 43 44 46 45 44 42 41 45 49 50 55 56 56 55 65 81 85 91 93 94 91 90 92 97 100
82 83 83 80 77 78 75 74 69 62 52 51 54 52 42 40 38 36 39 40 42 43 42 42 41 40 38 42 45 51 55 56 56 57 69 87 91 91 93 94 93 94 98 103
78 78 75 79 80 73 70 69 61 51 49 47 45 48 37 36 31 32 34 37 39 42 37 37 38 37 33 35 41 49 55 56 54 55 60 68 78 88 90 93 96 96 99 104
72 75 72 66 63 61 57 55 51 45 43 39 39 39 32 30 25 28 31 33 35 35 30 32 32 32 30 31 39 48 53 53 52 53 56 61 66 74 80 88 95 100 107 112
67 71 65 62 60 59 55 46 42 37 35 34 33 29 24 21 20 23 26 27 28 25 22 24 29 29 25 29 36 43 49 48 50 51 53 58 64 71 76 80 86 90 93 96
61 58 58 57 49 45 45 41 35 31 29 27 26 24 21 18 17 19 20 18 18 19 24 27 24 22 26 29 36 42 45 47 52 50 53 56 61 68 76 80 86 92 95 98
54 54 50 43 44 42 37 34 32 29 25 20 18 17 17 16 16 16 16 16 17 18 18 19 20 21 25 31 37 42 45 47 47 50 53 56 58 62 67 70 75 81 85 89
42 46 44 46 49 48 42 30 23 20 18 16 12 11 9 8 8 10 13 12 11 14 16 18 20 22 26 30 33 35 38 41 47 52 51 55 57 59 65 70 76 81 84 82
37 41 40 43 45 44 49 40 34 28 24 21 17 12 7 1 5 8 9 10 11 12 14 18 21 25 28 30 32 33 38 41 45 48 52 56 60 65 69 70 72 75 74 77
28 29 31 34 39 41 40 45 38 33 27 22 17 12 8 5 5 7 8 8 11 15 19 22 24 25 26 27 29 35 39 42 46 51 53 58 63 65 67 70 74 77 79 82
23 23 27 28 31 32 27 32 32 29 27 23 20 15 11 10 9 5 6 9 14 17 20 22 23 24 26 28 31 35 40 45 50 54 57 60 66 71 72 74 75 76 80 86
27 22 21 23 26 24 24 18 26 15 17 18 17 16 14 9 7 9 10 12 14 17 19 21 23 25 30 35 40 45 47 48 52 56 59 60 61 63 67 69 79 86 83 83
33 24 22 20 22 23 21 12 12 8 9 8 4 3 3 1 7 9 13 15 15 17 19 21 23 26 28 32 35 40 45 48 53 57 62 66 64 67 72 77 81 81 78 76
32 31 25 24 20 18 19 19 15 11 10 9 9 10 9 8 10 12 15 20 20 23 25 27 29 32 35 38 41 44 48 51 54 55 60 66 71 77 84 82 76 74 72 68
30 29 28 28 26 24 21 21 24 23 23 20 19 17 16 18 18 19 22 23 24 24 25 30 35 39 40 42 47 52 52 52 59 62 65 72 76 79 71 71 70 68 64 63
21 24 26 28 28 29 28 26 23 26 30 30 28 31 30 28 26 27 27 26 27 29 30 31 34 36 36 39 44 45 49 58 62 66 72 75 71 69 69 66 64 62 62 58
14 15 17 20 23 27 28 29 30 31 31 34 38 37 35 36 40 38 38 38 38 39 39 41 43 45 48 51 53 57 61 66 68 69 66 65 65 64 64 63 60 61 58 57
15 15 16 16 17 19 21 24 27 29 31 33 33 37 40 41 44 43 46 47 47 47 49 49 51 54 57 60 64 66 67 65 62 62 61 60 60 62 59 58 59 58 57 55
25 24 23 21 20 20 20 22 24 27 30 30 30 31 32 34 38 40 43 46 48 51 52 53 54 55 57 56 57 58 59 59 59 58 56 57 57 54 56 57 57 56 56 54
Wind_Direction
288 288 287 285 284 284 284 286 288 289 290 292 290 291 290 288 288 289 289 287 285 281 279 277 276 271 267 266 257 248 242 235 232 227 225 229 236 234 230 232 242 242 236 240
292 289 286 284 286 284 286 291 291 292 292 289 289 287 287 287 289 288 287 284 281 276 272 270 269 269 265 261 257 247 238 235 230 225 228 226 233 236 230 233 234 237 240 243
292 287 288 286 284 286 291 292 290 293 293 292 292 290 288 287 286 284 279 277 275 272 270 269 267 264 263 260 256 246 239 233 227 222 221 227 229 229 228 226 233 234 236 237
295 291 291 289 289 289 292 290 290 292 292 291 290 289 287 286 284 281 278 275 273 270 268 267 265 262 258 254 253 247 238 232 227 222 220 222 226 230 231 237 238 239 240 240
299 298 298 296 295 296 296 296 298 296 293 291 288 285 283 284 280 278 276 271 269 268 268 265 262 258 253 248 246 243 237 230 226 218 216 214 220 228 231 234 235 238 239 243
303 301 299 297 298 300 300 298 296 294 292 289 287 286 284 282 280 276 272 271 269 267 266 264 261 255 251 245 240 238 234 227 222 214 211 212 218 224 233 234 237 238 240 243
301 301 300 300 301 302 302 301 302 299 295 290 286 285 282 279 275 272 268 266 264 263 262 261 260 255 249 244 238 234 232 226 221 214 212 214 217 226 232 236 239 239 240 244
304 304 306 303 304 304 305 306 304 301 298 295 292 289 284 276 271 266 262 260 260 260 257 257 259 258 250 244 235 230 229 226 223 218 215 217 219 226 229 237 243 243 245 247
305 308 307 307 309 307 307 309 308 304 298 295 293 290 285 279 269 264 258 255 252 254 256 255 256 256 251 242 231 227 225 227 225 221 219 221 225 227 233 237 243 248 249 250
308 305 306 307 307 306 305 304 304 303 299 295 289 290 288 280 272 263 257 251 249 252 255 258 255 253 249 244 230 225 223 225 229 227 225 226 230 233 236 241 246 250 252 255
308 307 309 311 310 308 305 304 307 306 298 295 289 290 294 282 275 264 256 251 250 250 252 259 256 254 251 240 228 222 222 224 230 233 234 233 234 236 240 245 249 253 256 257
306 305 310 315 310 310 312 315 313 309 302 297 292 296 299 288 270 257 251 247 249 251 249 255 254 250 249 237 224 219 220 223 229 235 239 240 240 241 243 246 250 253 256 259
308 310 318 322 321 322 318 322 316 311 307 305 300 295 291 281 269 251 248 247 249 250 241 241 239 242 240 229 219 217 219 223 229 237 241 244 244 245 247 250 252 255 260 263
306 312 325 334 331 326 328 329 329 324 316 307 299 296 291 275 254 240 241 240 236 221 223 231 236 228 225 216 211 212 215 224 231 240 244 246 245 246 249 252 255 258 262 266
306 318 327 337 352 352 347 342 336 328 320 311 311 315 304 282 260 234 227 226 223 221 225 223 218 216 210 204 201 206 214 225 235 244 248 249 251 253 256 258 261 265 268 272
304 315 330 342 356 6 4 7 2 355 352 345 342 349 342 314 261 231 231 218 209 212 210 206 202 197 195 194 200 210 222 232 240 246 253 257 260 263 264 267 270 272 276 282
302 314 334 343 352 6 13 15 15 18 22 21 22 22 15 323 196 171 179 184 187 193 195 187 179 180 185 194 204 216 228 239 248 252 254 259 264 266 271 276 281 286 292 297
291 303 319 332 349 2 7 12 19 24 27 30 33 36 55 86 124 146 157 168 179 174 169 170 175 184 194 204 215 227 236 243 249 255 261 266 270 273 282 285 287 292 295 298
281 294 307 323 340 357 5 7 12 23 25 30 33 37 48 65 75 92 141 156 160 162 171 178 186 197 207 220 232 240 247 253 257 260 267 277 280 284 289 294 295 299 300 304
275 286 296 305 324 342 358 3 9 27 23 29 29 28 31 50 87 119 136 159 174 185 191 197 203 210 217 225 232 240 250 258 264 271 277 285 291 298 301 305 305 305 305 308
289 279 283 289 297 314 325 338 346 3 14 10 31 33 333 121 137 158 176 188 203 210 216 221 231 236 240 249 254 259 266 274 275 278 282 289 299 307 308 308 308 310 311 310
280 285 278 280 294 295 302 309 302 291 285 301 323 306 283 252 234 220 215 218 223 225 231 237 242 245 252 259 263 266 270 279 285 294 301 305 306 306 308 308 310 312 313 315
283 291 294 294 287 287 286 290 291 295 284 272 279 287 281 273 268 255 249 253 256 255 257 257 260 262 269 271 272 273 278 298 301 303 304 306 308 308 308 312 314 316 319 321
291 289 289 292 292 295 299 288 287 281 283 285 285 276 277 273 273 275 275 277 279 277 281 288 289 282 290 293 292 298 300 300 306 310 313 310 308 312 315 316 320 322 324 327
326 319 308 299 295 294 294 293 289 288 284 277 274 279 280 278 273 272 273 276 276 278 282 285 289 292 292 295 299 301 305 308 310 308 309 310 312 315 319 322 325 328 331 334
7 356 346 335 323 313 306 301 297 294 291 288 283 279 277 276 274 274 270 272 273 273 276 280 285 288 291 294 296 299 303 305 305 307 309 312 317 320 322 326 330 333 336 337
23 18 11 3 355 345 333 323 313 306 303 300 292 287 283 278 275 273 272 273 275 277 277 281 286 290 293 296 299 300 302 305 307 309 313 318 320 322 327 331 334 337 339 341
Height
10568 10564 10553 10547 10535 10510 10499 10489 10467 10488 10479 10469 10471 10454 10462 10453 10449 10447 10448 10447 10444 10436 10433 10434 10436 10439 10440 10444 10450 10453 10459 10466 10474 10482 10486 10487 10496 10503 10510 10519 10524 10528 10529 10531
10548 10536 10527 10521 10507 10486 10479 10471 10452 10435 10455 10429 10440 10428 10427 10423 10422 10420 10420 10419 10418 10412 10412 10413 10416 10417 10423 10427 10434 10437 10442 10448 10456 10466 10469 10474 10481 10488 10496 10501 10502 10508 10511 10515
10531 10514 10500 10488 10476 10476 10462 10440 10416 10427 10416 10412 10403 10395 10394 10393 10393 10394 10392 10390 10389 10388 10389 10391 10396 10400 10404 10410 10416 10421 10426 10432 10439 10447 10452 10461 10469 10475 10479 10482 10486 10491 10493 10493
10500 10486 10476 10451 10450 10445 10433 10412 10411 10397 10391 10381 10375 10365 10360 10359 10364 10364 10364 10363 10361 10362 10364 10368 10372 10378 10382 10390 10398 10403 10409 10415 10421 10429 10440 10448 10454 10458 10461 10465 10468 10471 10473 10474
10466 10460 10456 10422 10420 10415 10405 10381 10384 10368 10360 10353 10349 10342 10332 10337 10334 10333 10337 10335 10336 10336 10338 10343 10346 10351 10357 10366 10377 10385 10390 10398 10405 10413 10422 10431 10435 10442 10445 10446 10447 10445 10448 10452
10443 10436 10429 10405 10396 10387 10382 10368 10356 10347 10337 10329 10320 10316 10311 10312 10310 10312 10312 10312 10313 10315 10318 10322 10326 10329 10336 10346 10356 10365 10373 10380 10387 10395 10403 10409 10416 10419 10421 10424 10426 10427 10430 10431
10425 10411 10405 10390 10376 10363 10349 10344 10332 10320 10315 10308 10299 10298 10294 10291 10292 10294 10293 10293 10296 10297 10301 10305 10307 10313 10320 10330 10340 10348 10357 10364 10370 10377 10386 10394 10397 10398 10405 10404 10402 10403 10405 10405
10408 10390 10378 10364 10356 10338 10326 10323 10314 10303 10293 10285 10278 10276 10275 10275 10275 10277 10277 10277 10279 10279 10283 10289 10291 10298 10305 10315 10324 10332 10340 10349 10357 10364 10372 10376 10380 10383 10386 10386 10384 10387 10388 10389
10390 10375 10355 10342 10326 10314 10300 10293 10287 10282 10279 10268 10261 10256 10257 10258 10259 10261 10260 10262 10263 10263 10268 10274 10279 10284 10292 10299 10309 10318 10326 10335 10343 10351 10358 10362 10365 10368 10367 10370 10370 10372 10371 10369
10379 10359 10341 10328 10316 10300 10292 10278 10271 10263 10258 10252 10241 10238 10241 10241 10243 10247 10246 10249 10252 10252 10257 10262 10267 10271 10278 10288 10299 10308 10316 10323 10330 10339 10344 10348 10352 10357 10359 10358 10356 10354 10353 10349
10355 10341 10335 10309 10292 10285 10278 10263 10255 10249 10240 10235 10229 10225 10228 10228 10231 10232 10234 10235 10238 10242 10248 10252 10257 10261 10269 10277 10286 10296 10306 10313 10319 10325 10330 10335 10341 10343 10341 10341 10341 10338 10335 10329
10345 10330 10320 10307 10292 10275 10262 10251 10240 10233 10226 10221 10218 10217 10217 10217 10219 10220 10223 10225 10229 10233 10240 10244 10249 10255 10261 10268 10275 10285 10295 10304 10311 10315 10318 10321 10325 10327 10328 10326 10325 10322 10316 10310
10333 10318 10308 10292 10274 10262 10250 10239 10230 10222 10215 10212 10209 10208 10207 10207 10209 10211 10214 10218 10223 10228 10233 10238 10243 10248 10255 10260 10269 10279 10288 10297 10303 10305 10307 10309 10312 10311 10310 10310 10307 10304 10300 10296
10323 10313 10302 10284 10274 10257 10242 10231 10223 10216 10210 10205 10202 10200 10200 10201 10201 10204 10208 10213 10218 10222 10227 10232 10238 10243 10248 10255 10263 10272 10282 10288 10290 10294 10295 10297 10297 10296 10296 10295 10292 10287 10282 10276
10315 10305 10299 10286 10265 10249 10238 10227 10219 10213 10207 10203 10199 10197 10196 10198 10199 10202 10206 10210 10215 10219 10225 10230 10235 10239 10245 10251 10260 10268 10275 10280 10284 10285 10285 10284 10286 10285 10283 10279 10275 10270 10264 10257
10311 10304 10295 10282 10267 10252 10240 10230 10222 10214 10208 10203 10200 10198 10198 10199 10202 10204 10208 10212 10215 10220 10224 10228 10232 10237 10244 10252 10260 10268 10273 10275 10274 10274 10278 10278 10276 10274 10270 10266 10259 10253 10247 10241
10306 10298 10290 10281 10272 10259 10248 10237 10226 10218 10212 10208 10205 10204 10203 10205 10206 10208 10211 10214 10217 10221 10225 10229 10234 10240 10247 10254 10260 10265 10266 10268 10269 10270 10268 10267 10265 10260 10256 10252 10245 10240 10231 10223
10304 10299 10294 10286 10277 10265 10254 10245 10237 10230 10224 10219 10215 10214 10212 10212 10212 10214 10216 10218 10221 10223 10227 10233 10239 10245 10250 10256 10260 10260 10262 10263 10263 10261 10260 10257 10254 10249 10243 10238 10231 10223 10214 10204
10298 10295 10292 10286 10278 10271 10263 10256 10249 10242 10237 10232 10228 10225 10222 10221 10221 10222 10223 10225 10227 10231 10235 10240 10244 10249 10253 10256 10258 10259 10259 10258 10257 10253 10250 10247 10243 10237 10232 10225 10215 10205 10192 10179
10291 10288 10286 10283 10278 10273 10268 10262 10257 10251 10246 10242 10239 10236 10234 10232 10232 10232 10233 10235 10237 10239 10242 10245 10248 10250 10252 10252 10251 10250 10250 10251 10250 10247 10244 10239 10232 10226 10217 10205 10195 10183 10167 10154
10283 10281 10280 10277 10275 10273 10269 10265 10260 10257 10253 10250 10247 10245 10243 10242 10241 10242 10242 10243 10245 10246 10248 10250 10251 10252 10253 10253 10253 10251 10249 10247 10242 10237 10232 10225 10219 10209 10198 10187 10173 10159 10147 10135
10276 10275 10273 10272 10270 10268 10266 10263 10261 10259 10256 10253 10252 10251 10249 10247 10247 10246 10245 10246 10247 10247 10248 10249 10249 10249 10249 10248 10247 10244 10240 10236 10231 10226 10219 10212 10204 10193 10182 10168 10154 10142 10130 10117
10271 10269 10268 10266 10264 10262 10260 10259 10257 10256 10255 10252 10250 10249 10248 10247 10247 10246 10245 10246 10245 10245 10245 10244 10244 10243 10242 10239 10236 10232 10229 10226 10222 10216 10208 10198 10186 10176 10163 10151 10139 10126 10113 10101
10266 10263 10261 10259 10257 10255 10254 10252 10251 10249 10248 10246 10245 10244 10242 10242 10241 10240 10241 10241 10241 10241 10240 10240 10239 10237 10236 10233 10230 10227 10221 10216 10206 10199 10192 10183 10171 10159 10148 10137 10124 10111 10099 10086
10262 10259 10256 10254 10251 10249 10247 10245 10244 10241 10239 10237 10235 10233 10233 10232 10232 10231 10231 10231 10231 10231 10230 10229 10228 10225 10223 10220 10216 10211 10205 10200 10194 10186 10177 10168 10157 10147 10135 10123 10111 10099 10086 10074
10261 10257 10254 10250 10247 10244 10240 10237 10234 10231 10229 10226 10225 10223 10222 10222 10221 10221 10221 10221 10220 10218 10218 10217 10216 10213 10211 10209 10205 10200 10195 10188 10180 10172 10164 10156 10145 10135 10124 10113 10102 10090 10078 10066
10260 10256 10252 10248 10244 10240 10236 10232 10228 10223 10219 10215 10213 10211 10209 10208 10208 10208 10208 10209 10209 10208 10208 10208 10206 10204 10202 10198 10194 10190 10183 10176 10169 10162 10154 10144 10134 10124 10114 10104 10093 10081 10069 10058